Portland, ME

4:45 PM EST on November 17, 2017 (GMT -0500)
Portland International

Weather History for KPWM - April, 2014

Change the Weather History Date:

Thursday, April 3, 2014

  Actual Average Record
Temperature  
Mean Temperature 38 °F 40 °F  
Max Temperature 50 °F 48 °F 67 °F (1967)
Min Temperature 25 °F 31 °F 11 °F (1954)
Degree Days  
Heating Degree Days 27 25  
Month to date heating degree days 84 77  
Since 1 July heating degree days 6493 6095  
Cooling Degree Days 0 0  
Month to date cooling degree days 0 0  
Year to date cooling degree days 0 0  
Moisture  
Dew Point 26 °F    
Average Humidity 66    
Maximum Humidity 100    
Minimum Humidity 32    
Precipitation  
Precipitation 0.00 in 0.15 in 2.42 in (1975)
Month to date precipitation 0.00 0.44  
Year to date precipitation 12.63 11.31  
Snow  
Snow 0.00 in 0.20 in 3.70 in (1937)
Month to date snowfall 0.0 0.6  
Since 1 July snowfall 82.2 59.7  
Snow Depth 1.00 in    
Sea Level Pressure  
Sea Level Pressure 30.08 in    
Wind  
Wind Speed 6 mph (NNW)    
Max Wind Speed 17 mph    
Max Gust Speed 22 mph    
Visibility 8 miles    
Events Fog    
T = Trace of Precipitation, MM = Missing Value Source: NWS Daily Summary

Daily Weather History Graph

Daily Weather History Graph

Search for Another Location

Airport or City:

Trip Planner

Search our weather history database for the weather conditions in past years. The results will help you decide how hot, cold, wet, or windy it might be!

Date:

Astronomy

Apr. 03, 2014 Rise Set
Actual Time 6:19 AM EDT 7:10 PM EDT
Civil Twilight 5:50 AM EDT 7:39 PM EDT
Nautical Twilight 5:15 AM EDT 8:14 PM EDT
Astronomical Twilight 4:39 AM EDT 8:50 PM EDT
Moon 8:39 AM EDT (4/3) 11:33 PM EDT (4/3)
Length of Visible Light 13h 49m
Length of Day
12h 51m
Waxing Crescent, 17% of the Moon is Illuminated
Apr 3
Waxing Crescent
Apr 7
First Quarter
Apr 15
Full
Apr 22
Last Quarter
Apr 29
New

Hourly Weather History & Observations

Time (EDT) Temp. Windchill Dew Point Humidity Pressure Visibility Wind Dir Wind Speed Gust Speed Precip Events Conditions
12:51 AM 25.0 °F 20.7 °F 24.1 °F 96% 30.06 in 10.0 mi WNW 3.5 mph - N/A   Clear
1:51 AM 27.0 °F 23.0 °F 24.1 °F 89% 30.05 in 10.0 mi WNW 3.5 mph - N/A   Clear
2:51 AM 27.0 °F - 24.1 °F 89% 30.05 in 9.0 mi Calm Calm - N/A   Clear
3:24 AM 25.0 °F 19.3 °F 24.1 °F 96% 30.04 in 10.0 mi NW 4.6 mph - N/A   Scattered Clouds
3:33 AM 26.1 °F 21.9 °F 25.0 °F 96% 30.04 in 10.0 mi NW 3.5 mph - N/A   Mostly Cloudy
3:51 AM 28.9 °F 22.8 °F 27.0 °F 92% 30.05 in 10.0 mi North 5.8 mph - N/A   Overcast
4:27 AM 30.9 °F 26.2 °F 28.9 °F 92% 30.04 in 10.0 mi NNW 4.6 mph - N/A   Overcast
4:51 AM 32.0 °F 26.4 °F 30.9 °F 96% 30.06 in 7.0 mi North 5.8 mph - N/A   Overcast
5:13 AM 30.9 °F 26.2 °F 30.0 °F 96% 30.06 in 2.5 mi North 4.6 mph - N/A   Overcast
5:40 AM 30.9 °F 24.3 °F 30.0 °F 96% 30.06 in 1.0 mi NNE 6.9 mph - N/A   Overcast
5:51 AM 30.9 °F 24.3 °F 30.0 °F 96% 30.06 in 1.0 mi NNE 6.9 mph - N/A   Overcast
6:12 AM 30.0 °F 24.1 °F 28.9 °F 96% 30.06 in 0.8 mi North 5.8 mph - N/A   Overcast
6:25 AM 30.0 °F 24.1 °F 28.9 °F 96% 30.07 in 0.2 mi NNW 5.8 mph - N/A Fog Light Freezing Fog
6:51 AM 28.9 °F 25.2 °F 28.0 °F 96% 30.08 in 0.2 mi NNE 3.5 mph - N/A Fog Light Freezing Fog
7:51 AM 30.0 °F 25.2 °F 28.0 °F 92% 30.09 in 0.5 mi NW 4.6 mph - N/A Fog Light Freezing Fog
7:58 AM 30.0 °F 25.2 °F 28.9 °F 96% 30.09 in 1.0 mi NNW 4.6 mph - N/A   Mostly Cloudy
8:27 AM 30.0 °F - 28.9 °F 96% 30.09 in 7.0 mi Calm Calm - N/A   Mostly Cloudy
8:43 AM 30.9 °F 27.5 °F 28.0 °F 89% 30.10 in 7.0 mi West 3.5 mph - N/A   Scattered Clouds
8:51 AM 30.9 °F 26.2 °F 28.9 °F 92% 30.10 in 7.0 mi West 4.6 mph - N/A   Partly Cloudy
9:51 AM 41.0 °F 37.1 °F 28.9 °F 62% 30.09 in 10.0 mi NNW 5.8 mph - N/A   Clear
10:51 AM 44.1 °F 37.4 °F 24.1 °F 45% 30.09 in 10.0 mi NNW 13.8 mph - N/A   Clear
11:51 AM 46.0 °F 41.4 °F 24.1 °F 42% 30.09 in 10.0 mi North 9.2 mph 19.6 mph N/A   Scattered Clouds
12:51 PM 46.9 °F - 24.1 °F 41% 30.08 in 10.0 mi WNW 13.8 mph 20.7 mph N/A   Scattered Clouds
1:51 PM 48.2 °F - 24.8 °F 40% 30.05 in 10.0 mi Variable 6.9 mph 17.3 mph N/A   Scattered Clouds
2:51 PM 48.0 °F - 21.9 °F 36% 30.06 in 10.0 mi Variable 4.6 mph - N/A   Partly Cloudy
3:51 PM 50.0 °F - 23.0 °F 35% 30.06 in 10.0 mi NNW 15.0 mph 18.4 mph N/A   Clear
4:51 PM 50.0 °F - 21.9 °F 33% 30.05 in 10.0 mi NNW 9.2 mph - N/A   Clear
5:51 PM 46.9 °F - 21.9 °F 37% 30.07 in 10.0 mi NNW 10.4 mph - N/A   Clear
6:51 PM 43.0 °F 40.3 °F 21.9 °F 43% 30.09 in 10.0 mi North 4.6 mph - N/A   Clear
7:51 PM 39.0 °F 36.8 °F 26.1 °F 60% 30.11 in 10.0 mi SSW 3.5 mph - N/A   Clear
8:51 PM 36.0 °F - 24.1 °F 62% 30.12 in 10.0 mi Calm Calm - N/A   Clear
9:51 PM 37.0 °F - 21.0 °F 52% 30.14 in 10.0 mi Calm Calm - N/A   Clear
10:51 PM 35.1 °F 31.0 °F 21.9 °F 59% 30.17 in 10.0 mi NE 4.6 mph - N/A   Clear
11:51 PM 35.1 °F 29.3 °F 19.9 °F 54% 30.17 in 10.0 mi North 6.9 mph - N/A   Clear